Regional Weather Roundup
Issued by NWS Columbia, SC

Home | Current Version | Previous Version | Text Only | Print | Product List | Glossary On
Versions: 1 2 3 4 5 6 7 8 9 10 11 12 13 14 15 16 17 18 19 20 21 22 23 24 25 26 27 28 29 30 31 32 33 34 35 36 37 38 39 40 41 42 43 44 45 46 47 48 49 50
000
ASUS42 KCAE 280910
RWRCAE
REGIONAL WEATHER ROUNDUP
NATIONAL WEATHER SERVICE COLUMBIA SC
500 AM EDT THU AUG 28 2014

NOTE: "FAIR" INDICATES FEW OR NO CLOUDS BELOW 12,000 FEET WITH NO
SIGNIFICANT WEATHER AND/OR OBSTRUCTIONS TO VISIBILITY.

NOT ALL STATIONS ARE QUALITY CONTROLLED BY THE NATIONAL
WEATHER SERVICE. USE DATA WITH CAUTION...ESPECIALLY
DEWPOINT OBSERVATIONS.

SCZ001>056-GAZ040-063>065-077-281000-
...UPSTATE SOUTH CAROLINA...

CITY           SKY/WX    TMP DP  RH WIND       PRES   REMARKS
ANDERSON       CLEAR     62  59  90 CALM      30.03S
LIBERTY        FAIR      60  32  34 CALM      30.03S
SPARTANBURG    FAIR      63  63 100 CALM      30.02S
CLEMSON        CLEAR     70  66  87 NW3       30.04S
GREENVILLE     CLEAR     69  62  78 W3        30.04S
GREENWOOD      CLEAR     60  56  86 CALM      30.04R
GREER          CLEAR     66  63  90 S3        30.02S
ROCK HILL      CLEAR     60  59  96 CALM      30.01F
LAURENS        FAIR      63  50  63 CALM      30.04R


...CENTRAL SOUTH CAROLINA...

CITY           SKY/WX    TMP DP  RH WIND       PRES   REMARKS
COLUMBIA APT   CLEAR     62  58  86 SW3       30.01R
COLUMBIA OWENS CLEAR     64  60  87 CALM      30.02R
DARLINGTON     CLEAR     61  55  82 SW3       30.00S
FLORENCE       CLEAR     63  59  87 W5        29.99S
MCENTIRE ANGB  CLEAR     60  58  92 CALM      30.01R
ORANGEBURG     CLEAR     63  59  87 CALM      30.01S
SUMTER SHAW    CLEAR     65  60  83 SW2       29.99R
NEWBERRY       FAIR      59  59 100 CALM      30.05R
AIKEN          FAIR      61  59  94 CALM      30.05S
BARNWELL       FAIR      61  57  88 CALM      30.02S
MANNING        FAIR      63 N/A N/A CALM      30.00S
CAMDEN         FAIR      59  57  94 CALM      30.02R
LANCASTER      LGT RAIN  59  59 100 CALM      30.01S
WINNSBORO      FAIR      64  59  82 CALM      30.01S


...EASTERN AND COASTAL SOUTH CAROLINA...

CITY           SKY/WX    TMP DP  RH WIND       PRES   REMARKS
MYRTLE BEACH   CLEAR     66  63  88 W6        29.99R
CONWAY         FAIR      61  61 100 CALM      29.99S
MARION         FAIR      63  61  94 CALM      29.99R
HARTSVILLE     FAIR      68  46  45 CALM      30.00S
FLORENCE       CLEAR     63  59  87 W5        29.99S
DARLINGTON     CLEAR     61  55  82 SW3       30.00S
CHARLESTON APT CLEAR     71  65  81 W6        30.00S
MOUNT PLEASANT FAIR      66  66 100 CALM      30.00S
WALTERBORO     SUNNY     64 N/A N/A W3        30.01S
BEAUFORT       CLEAR     69  66  90 NW3       30.00S


...EASTERN GEORGIA...

CITY           SKY/WX    TMP DP  RH WIND       PRES   REMARKS
AUGUSTA BUSH F CLEAR     59  58  96 CALM      30.01S FOG
AUGUSTA DANIEL CLEAR     72  58  61 SW3       30.02S
THOMSON        CLEAR     60  60 100 CALM      30.06S
WASHINGTON     FAIR      63  59  88 NW3       30.03S
SYLVANIA       SUNNY     63  63 100 CALM      30.02S
STATESBORO     CLEAR     63  63 100 CALM      30.01S
SAVANNAH       CLEAR     67  63  87 W3        30.01S


...SOUTHERN NORTH CAROLINA...

CITY           SKY/WX    TMP DP  RH WIND       PRES   REMARKS
CHARLOTTE      CLEAR     65  60  84 CALM      30.01S
MONROE         CLEAR     62  59  90 SW5       30.00S
WADESBORO      SUNNY     61  58  91 CALM      29.99S
ROCKINGHAM     SUNNY     62  59  89 CALM      29.99S
RUTHERFORDTON  CLEAR     61  60  96 NW5       30.03F
ASHEVILLE      CLEAR     60  57  89 CALM      30.11S

$$


USA.gov is the U.S. government's official web portal to all federal, state and local government web resources and services.